Cleveland, OH

7:14 PM EDT on September 26, 2016 (GMT -0400)
Cleveland-Hopkins International

Weather History for KCLE - March, 2013

Change the Weather History Date:

Tuesday, March 19, 2013

  Actual Average Record
Temperature  
Mean Temperature 32 °F 39 °F  
Max Temperature 37 °F 48 °F 76 °F (1903)
Min Temperature 26 °F 31 °F 7 °F (1885)
Degree Days  
Heating Degree Days 33 26  
Month to date heating degree days 594 544  
Since 1 July heating degree days 4773 4761  
Cooling Degree Days 0 0  
Month to date cooling degree days 0 0  
Year to date cooling degree days 0 0  
Moisture  
Dew Point 22 °F    
Average Humidity 70    
Maximum Humidity 82    
Minimum Humidity 58    
Precipitation  
Precipitation T in 0.10 in 0.86 in (1951)
Month to date precipitation 1.62 1.68  
Year to date precipitation 6.09 6.74  
Snow  
Snow T in 0.40 in - ()
Month to date snowfall 3.6 8.6  
Since 1 July snowfall 44.3 60.8  
Snow Depth 0.00 in    
Sea Level Pressure  
Sea Level Pressure 29.84 in    
Wind  
Wind Speed 20 mph (WSW)    
Max Wind Speed 35 mph    
Max Gust Speed 43 mph    
Visibility 9 miles    
Events Snow    
T = Trace of Precipitation, MM = Missing Value Source: NWS Daily Summary

Daily Weather History Graph

Daily Weather History Graph

Search for Another Location

Airport or City:

Trip Planner

Search our weather history database for the weather conditions in past years. The results will help you decide how hot, cold, wet, or windy it might be!

Date:

Astronomy

Mar. 19, 2013 Rise Set
Actual Time 7:32 AM EDT 7:38 PM EDT
Civil Twilight 7:04 AM EDT 8:06 PM EDT
Nautical Twilight 6:32 AM EDT 8:38 PM EDT
Astronomical Twilight 5:59 AM EDT 9:11 PM EDT
Moon 12:17 PM EDT (3/19) 2:28 AM EDT (3/19)
Length of Visible Light 13h 01m
Length of Day
12h 06m
Waxing Crescent, 49% of the Moon is Illuminated
Mar 19
Waxing Crescent
Mar 19
First Quarter
Mar 27
Full
Apr 3
Last Quarter
Apr 10
New

Hourly Weather History & Observations

Time (EDT) Temp. Windchill Dew Point Humidity Pressure Visibility Wind Dir Wind Speed Gust Speed Precip Events Conditions
12:24 AM 37.9 °F 27.9 °F 36.0 °F 93% 29.71 in 10.0 mi WSW 19.6 mph 28.8 mph 0.00 in   Overcast
12:51 AM 37.0 °F 26.4 °F 33.1 °F 86% 29.74 in 10.0 mi WSW 20.7 mph 27.6 mph 0.00 in   Overcast
1:51 AM 36.0 °F 27.1 °F 30.9 °F 82% 29.75 in 10.0 mi WSW 13.8 mph - N/A   Overcast
1:56 AM 36.0 °F 26.3 °F 30.9 °F 82% 29.73 in 10.0 mi WSW 16.1 mph - N/A   Overcast
2:32 AM 36.0 °F 26.3 °F 28.9 °F 76% 29.73 in 10.0 mi WSW 16.1 mph 25.3 mph N/A   Mostly Cloudy
2:39 AM 36.0 °F 26.3 °F 28.9 °F 76% 29.74 in 10.0 mi WSW 16.1 mph 26.5 mph N/A   Mostly Cloudy
2:51 AM 35.1 °F 24.1 °F 28.0 °F 76% 29.75 in 10.0 mi WSW 19.6 mph - N/A   Mostly Cloudy
3:51 AM 34.0 °F 27.2 °F 28.0 °F 79% 29.75 in 10.0 mi SW 8.1 mph - N/A   Mostly Cloudy
4:51 AM 34.0 °F 25.0 °F 28.9 °F 82% 29.75 in 10.0 mi West 12.7 mph - N/A   Overcast
5:46 AM 32.0 °F 18.9 °F 23.0 °F 69% 29.75 in 10.0 mi WSW 24.2 mph 40.3 mph N/A   Scattered Clouds
5:51 AM 32.0 °F 19.5 °F 21.2 °F 64% 29.76 in 10.0 mi SW 21.9 mph 32.2 mph N/A   Scattered Clouds
6:05 AM 30.9 °F 17.2 °F 21.9 °F 69% 29.76 in 10.0 mi WSW 25.3 mph 33.4 mph N/A   Mostly Cloudy
6:51 AM 30.0 °F 16.0 °F 21.0 °F 69% 29.80 in 10.0 mi WSW 25.3 mph 35.7 mph N/A   Overcast
7:03 AM 28.9 °F 13.5 °F 19.9 °F 69% 29.78 in 10.0 mi WSW 29.9 mph 40.3 mph N/A   Overcast
7:13 AM 28.9 °F 15.1 °F 19.9 °F 69% 29.79 in 10.0 mi WSW 23.0 mph 36.8 mph N/A   Overcast
7:51 AM 28.9 °F 14.5 °F 21.0 °F 72% 29.81 in 10.0 mi WSW 25.3 mph 35.7 mph N/A   Overcast
8:51 AM 28.0 °F 13.9 °F 21.0 °F 75% 29.82 in 6.0 mi WSW 23.0 mph 28.8 mph 0.00 in Snow Light Snow
9:51 AM 27.0 °F 13.5 °F 21.9 °F 81% 29.83 in 2.5 mi WSW 19.6 mph 25.3 mph 0.00 in Snow Light Snow
10:04 AM 26.1 °F 9.8 °F 18.0 °F 71% 29.81 in 4.0 mi WSW 28.8 mph 35.7 mph 0.00 in Snow Light Snow
10:13 AM 26.1 °F 10.7 °F 17.1 °F 69% 29.82 in 8.0 mi WSW 25.3 mph 33.4 mph 0.00 in Snow Light Snow
10:51 AM 27.0 °F 14.3 °F 18.0 °F 69% 29.84 in 9.0 mi WSW 17.3 mph - 0.00 in Snow Light Snow
11:22 AM 26.1 °F 11.6 °F 19.0 °F 75% 29.83 in 3.0 mi SW 21.9 mph 28.8 mph 0.00 in Snow Light Snow
11:34 AM 27.0 °F 12.8 °F 19.0 °F 72% 29.83 in 8.0 mi WSW 21.9 mph 29.9 mph 0.00 in Snow Light Snow
11:51 AM 27.0 °F 12.2 °F 18.0 °F 69% 29.86 in 6.0 mi WSW 24.2 mph 33.4 mph 0.00 in Snow Light Snow
12:51 PM 28.0 °F 13.6 °F 18.0 °F 66% 29.86 in 6.0 mi WSW 24.2 mph 33.4 mph 0.00 in Snow Light Snow
1:51 PM 28.9 °F 16.1 °F 19.0 °F 67% 29.86 in 8.0 mi WSW 19.6 mph 34.5 mph 0.00 in Snow Light Snow
2:51 PM 28.9 °F 14.5 °F 18.0 °F 64% 29.88 in 6.0 mi West 25.3 mph 40.3 mph 0.00 in Snow Light Snow
3:51 PM 30.0 °F 15.2 °F 17.1 °F 59% 29.90 in 9.0 mi WSW 28.8 mph 35.7 mph 0.00 in Snow Light Snow
4:51 PM 30.0 °F 14.0 °F 17.1 °F 59% 29.92 in 9.0 mi WSW 34.5 mph 43.7 mph 0.00 in Snow Light Snow
5:51 PM 30.0 °F 16.0 °F 18.0 °F 61% 29.93 in 8.0 mi West 25.3 mph 38.0 mph 0.00 in Snow Light Snow
6:51 PM 30.0 °F 16.9 °F 17.1 °F 59% 29.95 in 9.0 mi West 21.9 mph 28.8 mph 0.00 in   Mostly Cloudy
7:51 PM 30.0 °F 16.6 °F 17.1 °F 59% 29.96 in 10.0 mi WSW 23.0 mph 28.8 mph N/A   Mostly Cloudy
8:51 PM 30.0 °F 18.3 °F 18.0 °F 61% 29.97 in 10.0 mi WSW 17.3 mph - N/A   Overcast
9:51 PM 30.0 °F 17.9 °F 17.1 °F 59% 29.99 in 10.0 mi West 18.4 mph 24.2 mph N/A   Partly Cloudy
10:51 PM 28.9 °F 18.6 °F 17.1 °F 61% 29.99 in 10.0 mi West 12.7 mph - N/A   Partly Cloudy
11:51 PM 28.9 °F 18.2 °F 17.1 °F 61% 29.99 in 10.0 mi West 13.8 mph - N/A   Partly Cloudy